This demonstration page uses our WeatherBlox Daily Observations layout. Learn more.

Left ArrowRight Arrow

Hourly Observations for June 15, 2015

Temp ( °F °C ) Dew Point ( °F °C ) Humidity (%) Winds ( mph kmh ) Pressure ( in mb ) Visibility ( mi km ) Precip ( " mm )
12:53 am 00:53 Clear 42 5.6 36 2.2 79 79 ESE 5 7 30.24 1024 10 16 0.00 0.00
1:53 am 01:53 Clear 43 6.1 37 2.8 80 80 NNE 3 6 30.24 1024 10 16 0.00 0.00
2:53 am 02:53 Clear 42 5.6 37 2.8 82 82 ESE 3 6 30.25 1024 10 16 0.00 0.00
3:53 am 03:53 Clear 41 5 36 2.2 82 82 Calm 30.27 1025 10 16 0.00 0.00
4:53 am 04:53 Clear 39 3.9 36 2.2 89 89 E 6 9 30.27 1025 10 16 0.00 0.00
5:53 am 05:53 Sunny 41 5 37 2.8 86 86 ENE 3 6 30.28 1025 10 16 0.00 0.00
6:53 am 06:53 Sunny 45 7.2 38 3.3 77 77 NE 5 7 30.28 1026 10 16 0.00 0.00
7:53 am 07:53 Partly Cloudy 50 10 40 4.4 68 68 VRB 6 9 30.28 1025 10 16 0.00 0.00
8:53 am 08:53 Sunny 55 12.8 40 4.4 57 57 E 7 11 30.27 1025 10 16 0.00 0.00
9:53 am 09:53 Sunny 59 15 41 5 51 51 ENE 7 11 30.27 1025 10 16 0.00 0.00
10:53 am 10:53 Sunny 60 15.6 40 4.4 47 47 VRB 7 11 30.25 1025 10 16 0.00 0.00
11:53 am 11:53 Sunny 63 17.2 38 3.3 40 40 VRB 7 11 30.23 1024 10 16 0.00 0.00
12:53 pm 12:53 Mostly Sunny 66 18.9 39 3.9 37 37 undefined N/A 30.22 1023 10 16 0.00 0.00
1:53 pm 13:53 Mostly Cloudy 66 18.9 38 3.3 36 36 Calm 30.20 1023 10 16 0.00 0.00
2:53 pm 14:53 Mostly Cloudy 68 20 40 4.4 36 36 SSE 9 15 30.18 1022 10 16 0.00 0.00
3:53 pm 15:53 Partly Cloudy 68 20 43 6 40 40 SE 10 17 30.03 1017 10 16 0.00 0.00
4:53 pm 16:53 Mostly Cloudy 68 20 41 5 38 38 S 5 7 30.14 1021 10 16 0.00 0.00
5:53 pm 17:53 Cloudy 67 19.4 42 5.6 41 41 ESE 8 13 30.13 1020 10 16 0.00 0.00
6:53 pm 18:53 Cloudy 67 19.4 43 6.1 42 42 ESE 10 17 30.11 1020 10 16 0.00 0.00
7:53 pm 19:53 Cloudy 66 18.9 44 6.7 45 45 E 8 13 30.10 1019 10 16 0.00 0.00
8:53 pm 20:53 Cloudy 64 17.8 45 7.2 50 50 ESE 7 11 30.09 1019 10 16 0.00 0.00
9:53 pm 21:53 Cloudy 62 16.7 45 7.2 54 54 ESE 7 11 30.09 1019 10 16 0.00 0.00
10:53 pm 22:53 Cloudy 61 16.1 44 6.7 54 54 ESE 7 11 30.10 1019 10 16 0.00 0.00
11:53 pm 23:53 Mostly Cloudy 58 14.4 45 7.2 62 62 E 8 13 30.09 1019 10 16 0.00 0.00

Powered by AerisWeather